QPF
0.01 0.01 0.00 0.00 0.01 0.00 0.00 0.01 0.01 0.00 0.00 0.00 0.00 0.01 0.02 0.01 0.00 0.01 0.02 0.01 0.01 0.01 0.01 0.00 0.00 0.00 0.00 0.00 0.00 0.00 0.00 0.00 0.00 0.00 0.00 0.01 0.02 0.02 0.02 0.02 0.00 0.00 0.01 0.01
0.01 0.01 0.00 0.00 0.00 0.00 0.00 0.00 0.00 0.00 0.00 0.00 0.00 0.01 0.01 0.01 0.00 0.00 0.01 0.01 0.01 0.01 0.00 0.00 0.01 0.00 0.00 0.00 0.00 0.00 0.01 0.00 0.00 0.00 0.00 0.00 0.01 0.01 0.02 0.02 0.01 0.00 0.00 0.00
0.01 0.00 0.00 0.00 0.00 0.00 0.00 0.00 0.00 0.00 0.00 0.00 0.00 0.01 0.01 0.01 0.00 0.00 0.00 0.01 0.01 0.01 0.01 0.01 0.01 0.01 0.00 0.00 0.00 0.01 0.00 0.00 0.00 0.00 0.00 0.00 0.01 0.01 0.02 0.02 0.01 0.01 0.01 0.00
0.00 0.00 0.00 0.00 0.00 0.00 0.00 0.00 0.00 0.00 0.00 0.00 0.01 0.02 0.02 0.01 0.00 0.00 0.00 0.00 0.00 0.00 0.00 0.00 0.00 0.01 0.01 0.00 0.00 0.00 0.01 0.00 0.00 0.00 0.00 0.01 0.01 0.02 0.01 0.02 0.02 0.02 0.01 0.00
0.00 0.00 0.00 0.00 0.00 0.00 0.00 0.00 0.00 0.00 0.00 0.01 0.01 0.02 0.02 0.01 0.01 0.00 0.00 0.00 0.00 0.00 0.00 0.00 0.00 0.01 0.01 0.01 0.00 0.00 0.01 0.01 0.00 0.00 0.00 0.01 0.02 0.01 0.01 0.01 0.02 0.02 0.02 0.01
0.01 0.00 0.00 0.00 0.00 0.00 0.00 0.00 0.00 0.00 0.01 0.01 0.01 0.01 0.03 0.02 0.02 0.01 0.00 0.00 0.00 0.00 0.00 0.00 0.00 0.01 0.01 0.01 0.01 0.00 0.00 0.01 0.01 0.00 0.00 0.02 0.03 0.02 0.02 0.02 0.02 0.03 0.03 0.01
0.01 0.00 0.00 0.00 0.00 0.00 0.00 0.00 0.01 0.02 0.01 0.01 0.00 0.01 0.01 0.01 0.01 0.01 0.01 0.00 0.00 0.00 0.00 0.00 0.00 0.01 0.01 0.02 0.01 0.01 0.00 0.00 0.01 0.02 0.01 0.01 0.01 0.01 0.01 0.01 0.02 0.03 0.03 0.02
0.02 0.01 0.00 0.00 0.00 0.00 0.00 0.00 0.01 0.02 0.02 0.01 0.00 0.01 0.01 0.00 0.00 0.00 0.00 0.00 0.00 0.00 0.00 0.00 0.00 0.00 0.00 0.01 0.01 0.01 0.01 0.01 0.01 0.03 0.03 0.02 0.01 0.01 0.01 0.02 0.02 0.03 0.03 0.02
0.02 0.01 0.00 0.00 0.00 0.00 0.00 0.00 0.00 0.01 0.01 0.02 0.01 0.01 0.00 0.00 0.00 0.00 0.00 0.00 0.00 0.00 0.00 0.00 0.00 0.00 0.00 0.00 0.00 0.00 0.00 0.01 0.01 0.02 0.03 0.03 0.01 0.01 0.01 0.02 0.03 0.02 0.02 0.03
0.01 0.01 0.00 0.00 0.00 0.00 0.00 0.00 0.00 0.00 0.01 0.02 0.01 0.01 0.01 0.00 0.00 0.00 0.00 0.00 0.00 0.00 0.00 0.00 0.00 0.00 0.00 0.00 0.00 0.01 0.01 0.00 0.01 0.01 0.01 0.01 0.01 0.01 0.01 0.01 0.01 0.01 0.01 0.02
0.01 0.01 0.00 0.00 0.00 0.00 0.00 0.00 0.00 0.01 0.00 0.01 0.02 0.01 0.00 0.00 0.00 0.00 0.00 0.00 0.00 0.00 0.00 0.00 0.00 0.00 0.00 0.00 0.00 0.00 0.01 0.01 0.02 0.02 0.02 0.01 0.01 0.01 0.01 0.01 0.00 0.00 0.00 0.01
0.00 0.00 0.00 0.00 0.00 0.00 0.00 0.00 0.00 0.01 0.00 0.00 0.01 0.01 0.00 0.00 0.00 0.00 0.00 0.00 0.00 0.00 0.00 0.00 0.00 0.00 0.00 0.00 0.01 0.01 0.01 0.02 0.02 0.03 0.03 0.03 0.02 0.02 0.01 0.01 0.00 0.00 0.00 0.01
0.00 0.00 0.01 0.01 0.00 0.00 0.00 0.00 0.00 0.00 0.00 0.01 0.01 0.01 0.00 0.01 0.00 0.00 0.00 0.00 0.00 0.00 0.00 0.00 0.00 0.00 0.00 0.00 0.00 0.01 0.01 0.01 0.02 0.03 0.04 0.04 0.04 0.03 0.02 0.01 0.01 0.01 0.01 0.01
0.00 0.00 0.00 0.01 0.01 0.00 0.00 0.00 0.00 0.00 0.00 0.00 0.00 0.00 0.00 0.00 0.00 0.00 0.00 0.00 0.00 0.00 0.00 0.00 0.01 0.00 0.00 0.00 0.00 0.01 0.01 0.01 0.01 0.02 0.03 0.04 0.06 0.07 0.06 0.03 0.02 0.01 0.01 0.01
0.00 0.00 0.00 0.00 0.01 0.00 0.00 0.00 0.00 0.00 0.00 0.00 0.00 0.00 0.00 0.00 0.00 0.00 0.00 0.00 0.00 0.00 0.00 0.00 0.01 0.01 0.01 0.00 0.00 0.00 0.01 0.02 0.02 0.02 0.02 0.02 0.04 0.07 0.08 0.06 0.04 0.02 0.01 0.01
0.00 0.00 0.00 0.00 0.00 0.00 0.00 0.00 0.00 0.00 0.00 0.00 0.00 0.00 0.00 0.00 0.00 0.00 0.00 0.00 0.00 0.00 0.00 0.00 0.00 0.00 0.00 0.00 0.01 0.01 0.01 0.01 0.02 0.02 0.02 0.03 0.04 0.05 0.07 0.06 0.05 0.03 0.02 0.01
0.00 0.00 0.00 0.01 0.00 0.01 0.00 0.00 0.00 0.00 0.00 0.00 0.00 0.00 0.00 0.00 0.00 0.00 0.00 0.00 0.00 0.00 0.00 0.01 0.01 0.01 0.01 0.01 0.01 0.01 0.01 0.01 0.02 0.02 0.02 0.02 0.04 0.06 0.08 0.08 0.06 0.05 0.03 0.02
0.00 0.01 0.01 0.01 0.01 0.01 0.00 0.00 0.00 0.00 0.00 0.00 0.00 0.00 0.00 0.00 0.00 0.00 0.00 0.00 0.00 0.00 0.01 0.01 0.01 0.01 0.01 0.01 0.01 0.01 0.02 0.02 0.02 0.02 0.03 0.03 0.03 0.05 0.07 0.07 0.07 0.06 0.05 0.03
0.00 0.01 0.02 0.02 0.02 0.01 0.00 0.00 0.00 0.00 0.00 0.00 0.00 0.00 0.00 0.00 0.00 0.00 0.00 0.00 0.00 0.00 0.00 0.00 0.01 0.01 0.01 0.01 0.01 0.01 0.01 0.02 0.02 0.03 0.03 0.04 0.05 0.05 0.07 0.08 0.07 0.06 0.06 0.04
0.00 0.00 0.01 0.02 0.02 0.01 0.00 0.00 0.00 0.00 0.01 0.00 0.00 0.00 0.00 0.00 0.00 0.00 0.00 0.00 0.00 0.00 0.00 0.00 0.00 0.01 0.01 0.01 0.01 0.01 0.01 0.01 0.02 0.03 0.04 0.05 0.06 0.06 0.06 0.08 0.07 0.07 0.07 0.06
0.01 0.01 0.01 0.02 0.02 0.01 0.01 0.01 0.00 0.00 0.00 0.00 0.00 0.00 0.00 0.00 0.01 0.00 0.00 0.00 0.00 0.00 0.00 0.00 0.00 0.01 0.01 0.01 0.01 0.02 0.03 0.02 0.02 0.03 0.04 0.05 0.05 0.06 0.06 0.06 0.06 0.07 0.07 0.05
0.00 0.01 0.01 0.01 0.02 0.01 0.00 0.00 0.00 0.01 0.01 0.00 0.00 0.00 0.00 0.00 0.00 0.00 0.00 0.00 0.00 0.00 0.00 0.00 0.00 0.01 0.01 0.01 0.02 0.03 0.04 0.04 0.04 0.04 0.05 0.05 0.05 0.06 0.05 0.05 0.05 0.07 0.08 0.06
0.00 0.00 0.01 0.01 0.01 0.01 0.00 0.00 0.00 0.00 0.00 0.00 0.00 0.00 0.00 0.00 0.00 0.00 0.00 0.00 0.00 0.00 0.00 0.00 0.01 0.02 0.02 0.02 0.02 0.03 0.03 0.04 0.03 0.03 0.05 0.05 0.06 0.07 0.05 0.05 0.05 0.05 0.06 0.06
0.00 0.00 0.00 0.00 0.00 0.00 0.00 0.00 0.00 0.00 0.00 0.00 0.00 0.00 0.00 0.00 0.00 0.01 0.01 0.01 0.00 0.00 0.00 0.00 0.00 0.01 0.01 0.01 0.01 0.01 0.02 0.02 0.02 0.03 0.03 0.04 0.05 0.06 0.06 0.06 0.05 0.04 0.04 0.04
0.01 0.00 0.00 0.00 0.00 0.00 0.00 0.00 0.00 0.00 0.00 0.00 0.00 0.00 0.00 0.00 0.00 0.01 0.01 0.01 0.00 0.00 0.00 0.00 0.00 0.00 0.00 0.01 0.02 0.02 0.02 0.03 0.02 0.02 0.04 0.05 0.05 0.06 0.06 0.06 0.05 0.04 0.04 0.03
0.00 0.00 0.00 0.00 0.00 0.00 0.00 0.00 0.00 0.00 0.00 0.00 0.00 0.00 0.00 0.00 0.00 0.00 0.00 0.00 0.00 0.00 0.00 0.00 0.00 0.00 0.00 0.00 0.01 0.02 0.02 0.03 0.03 0.03 0.04 0.04 0.05 0.06 0.05 0.05 0.05 0.04 0.04 0.04
MSLP
1008.24 1008.89 1009.39 1009.75 1009.99 1010.16 1010.33 1010.52 1010.77 1011.05 1011.34 1011.60 1011.79 1011.89 1011.91 1011.85 1011.75 1011.65 1011.57 1011.55 1011.59 1011.67 1011.79 1011.93 1012.06 1012.19 1012.32 1012.45 1012.60 1012.78 1013.00 1013.24 1013.49 1013.74 1013.96 1014.15 1014.28 1014.37 1014.41 1014.42 1014.42 1014.40 1014.40 1014.41
1008.78 1009.24 1009.55 1009.71 1009.80 1009.87 1010.00 1010.21 1010.52 1010.89 1011.29 1011.64 1011.90 1012.04 1012.04 1011.94 1011.78 1011.60 1011.47 1011.40 1011.41 1011.50 1011.64 1011.81 1011.96 1012.11 1012.23 1012.34 1012.46 1012.62 1012.82 1013.07 1013.36 1013.67 1013.97 1014.24 1014.45 1014.59 1014.64 1014.64 1014.59 1014.52 1014.46 1014.41
1009.22 1009.51 1009.62 1009.62 1009.57 1009.57 1009.68 1009.93 1010.31 1010.79 1011.29 1011.74 1012.06 1012.21 1012.20 1012.05 1011.81 1011.55 1011.34 1011.22 1011.20 1011.28 1011.43 1011.61 1011.79 1011.93 1012.05 1012.14 1012.24 1012.36 1012.55 1012.80 1013.12 1013.47 1013.83 1014.16 1014.43 1014.60 1014.68 1014.67 1014.59 1014.48 1014.36 1014.28
1009.56 1009.69 1009.66 1009.53 1009.40 1009.36 1009.48 1009.78 1010.26 1010.84 1011.43 1011.95 1012.31 1012.48 1012.43 1012.21 1011.88 1011.54 1011.25 1011.06 1011.00 1011.06 1011.22 1011.41 1011.60 1011.76 1011.87 1011.94 1012.01 1012.11 1012.26 1012.50 1012.81 1013.18 1013.57 1013.93 1014.23 1014.43 1014.51 1014.49 1014.39 1014.24 1014.09 1013.96
1009.80 1009.83 1009.70 1009.50 1009.34 1009.31 1009.46 1009.84 1010.40 1011.06 1011.73 1012.30 1012.68 1012.83 1012.74 1012.44 1012.04 1011.60 1011.23 1010.98 1010.88 1010.93 1011.09 1011.30 1011.51 1011.68 1011.79 1011.85 1011.89 1011.95 1012.06 1012.26 1012.54 1012.88 1013.26 1013.62 1013.91 1014.11 1014.19 1014.15 1014.03 1013.85 1013.67 1013.51
1009.98 1009.95 1009.79 1009.58 1009.44 1009.44 1009.66 1010.10 1010.73 1011.46 1012.17 1012.76 1013.14 1013.25 1013.11 1012.75 1012.27 1011.76 1011.33 1011.04 1010.92 1010.97 1011.13 1011.37 1011.60 1011.79 1011.91 1011.96 1011.97 1011.98 1012.04 1012.17 1012.39 1012.68 1013.00 1013.32 1013.58 1013.75 1013.80 1013.75 1013.60 1013.40 1013.18 1013.00
1010.10 1010.07 1009.94 1009.77 1009.68 1009.75 1010.03 1010.53 1011.20 1011.96 1012.68 1013.26 1013.61 1013.69 1013.50 1013.09 1012.56 1012.03 1011.57 1011.27 1011.15 1011.21 1011.41 1011.68 1011.94 1012.15 1012.28 1012.32 1012.31 1012.27 1012.26 1012.31 1012.44 1012.64 1012.88 1013.13 1013.33 1013.46 1013.48 1013.39 1013.22 1013.00 1012.76 1012.55
1010.18 1010.20 1010.13 1010.04 1010.03 1010.16 1010.50 1011.03 1011.71 1012.45 1013.14 1013.68 1014.00 1014.04 1013.82 1013.40 1012.88 1012.35 1011.92 1011.65 1011.57 1011.67 1011.91 1012.22 1012.52 1012.76 1012.90 1012.93 1012.89 1012.80 1012.72 1012.69 1012.72 1012.82 1012.97 1013.14 1013.27 1013.34 1013.32 1013.20 1013.01 1012.77 1012.51 1012.27
1010.24 1010.34 1010.36 1010.36 1010.42 1010.62 1010.97 1011.50 1012.14 1012.82 1013.45 1013.93 1014.19 1014.21 1014.00 1013.61 1013.14 1012.68 1012.32 1012.12 1012.12 1012.28 1012.57 1012.93 1013.26 1013.52 1013.67 1013.70 1013.64 1013.51 1013.37 1013.26 1013.20 1013.22 1013.28 1013.36 1013.43 1013.44 1013.39 1013.25 1013.05 1012.79 1012.52 1012.25
1010.27 1010.46 1010.58 1010.67 1010.80 1011.03 1011.37 1011.84 1012.40 1012.98 1013.51 1013.91 1014.12 1014.13 1013.96 1013.64 1013.27 1012.93 1012.69 1012.60 1012.69 1012.93 1013.29 1013.68 1014.04 1014.32 1014.48 1014.50 1014.42 1014.27 1014.09 1013.93 1013.81 1013.76 1013.76 1013.78 1013.80 1013.78 1013.71 1013.56 1013.35 1013.09 1012.80 1012.52
1010.29 1010.57 1010.78 1010.95 1011.12 1011.34 1011.63 1012.00 1012.43 1012.87 1013.27 1013.57 1013.74 1013.76 1013.64 1013.44 1013.21 1013.02 1012.93 1012.99 1013.19 1013.51 1013.92 1014.34 1014.72 1015.00 1015.16 1015.19 1015.10 1014.95 1014.76 1014.58 1014.44 1014.36 1014.33 1014.33 1014.33 1014.30 1014.21 1014.07 1013.87 1013.61 1013.32 1013.03
1010.29 1010.66 1010.95 1011.17 1011.36 1011.53 1011.73 1011.97 1012.23 1012.51 1012.76 1012.95 1013.07 1013.11 1013.07 1013.00 1012.94 1012.93 1013.01 1013.21 1013.52 1013.92 1014.36 1014.80 1015.18 1015.46 1015.62 1015.65 1015.59 1015.45 1015.28 1015.13 1015.01 1014.94 1014.92 1014.92 1014.92 1014.89 1014.82 1014.68 1014.49 1014.24 1013.95 1013.64
1010.29 1010.73 1011.08 1011.34 1011.51 1011.62 1011.70 1011.77 1011.84 1011.93 1012.02 1012.11 1012.18 1012.24 1012.30 1012.37 1012.48 1012.65 1012.91 1013.25 1013.66 1014.12 1014.59 1015.03 1015.40 1015.66 1015.82 1015.87 1015.83 1015.74 1015.63 1015.53 1015.46 1015.44 1015.44 1015.47 1015.49 1015.47 1015.41 1015.28 1015.08 1014.84 1014.54 1014.23
1010.31 1010.81 1011.20 1011.46 1011.59 1011.61 1011.55 1011.45 1011.33 1011.23 1011.16 1011.14 1011.17 1011.25 1011.40 1011.62 1011.90 1012.25 1012.66 1013.13 1013.64 1014.15 1014.63 1015.05 1015.40 1015.65 1015.81 1015.88 1015.88 1015.85 1015.81 1015.79 1015.79 1015.82 1015.87 1015.93 1015.96 1015.95 1015.88 1015.75 1015.55 1015.28 1014.98 1014.64
1010.36 1010.89 1011.29 1011.54 1011.62 1011.54 1011.33 1011.06 1010.76 1010.48 1010.26 1010.14 1010.14 1010.25 1010.49 1010.84 1011.28 1011.79 1012.35 1012.93 1013.51 1014.06 1014.55 1014.96 1015.29 1015.52 1015.68 1015.78 1015.83 1015.87 1015.90 1015.95 1016.02 1016.11 1016.20 1016.27 1016.30 1016.28 1016.19 1016.03 1015.80 1015.51 1015.18 1014.82
1010.43 1010.97 1011.36 1011.57 1011.58 1011.40 1011.07 1010.64 1010.17 1009.74 1009.41 1009.22 1009.19 1009.34 1009.65 1010.12 1010.70 1011.36 1012.05 1012.73 1013.38 1013.96 1014.46 1014.86 1015.17 1015.40 1015.57 1015.69 1015.79 1015.89 1015.99 1016.11 1016.23 1016.34 1016.44 1016.51 1016.52 1016.46 1016.32 1016.11 1015.83 1015.50 1015.13 1014.75
1010.50 1011.01 1011.37 1011.53 1011.47 1011.20 1010.76 1010.20 1009.62 1009.08 1008.66 1008.42 1008.39 1008.58 1008.97 1009.55 1010.26 1011.04 1011.84 1012.61 1013.32 1013.94 1014.44 1014.85 1015.16 1015.39 1015.57 1015.72 1015.86 1016.00 1016.15 1016.30 1016.44 1016.56 1016.64 1016.67 1016.62 1016.50 1016.29 1016.02 1015.69 1015.31 1014.91 1014.51
1010.54 1011.00 1011.30 1011.40 1011.27 1010.92 1010.40 1009.76 1009.10 1008.50 1008.05 1007.80 1007.78 1008.03 1008.50 1009.17 1009.99 1010.87 1011.77 1012.62 1013.39 1014.04 1014.57 1014.98 1015.30 1015.54 1015.74 1015.91 1016.07 1016.24 1016.40 1016.56 1016.69 1016.78 1016.81 1016.77 1016.66 1016.46 1016.18 1015.85 1015.46 1015.05 1014.63 1014.22
1010.51 1010.88 1011.10 1011.13 1010.94 1010.54 1009.97 1009.31 1008.63 1008.03 1007.59 1007.36 1007.40 1007.70 1008.25 1009.01 1009.91 1010.88 1011.85 1012.76 1013.58 1014.27 1014.83 1015.26 1015.59 1015.85 1016.06 1016.24 1016.41 1016.58 1016.73 1016.87 1016.96 1017.00 1016.96 1016.85 1016.66 1016.39 1016.06 1015.68 1015.27 1014.85 1014.43 1014.03
1010.39 1010.64 1010.77 1010.72 1010.48 1010.06 1009.50 1008.85 1008.21 1007.66 1007.28 1007.12 1007.22 1007.59 1008.21 1009.04 1010.01 1011.04 1012.06 1013.02 1013.87 1014.59 1015.17 1015.62 1015.97 1016.24 1016.46 1016.65 1016.81 1016.96 1017.09 1017.18 1017.22 1017.20 1017.10 1016.92 1016.67 1016.35 1015.99 1015.60 1015.19 1014.80 1014.41 1014.05
1010.15 1010.27 1010.30 1010.18 1009.92 1009.51 1008.99 1008.42 1007.86 1007.41 1007.12 1007.06 1007.25 1007.70 1008.38 1009.25 1010.26 1011.32 1012.36 1013.34 1014.21 1014.95 1015.54 1016.01 1016.37 1016.65 1016.87 1017.05 1017.20 1017.32 1017.41 1017.45 1017.44 1017.36 1017.20 1016.98 1016.70 1016.37 1016.02 1015.65 1015.29 1014.95 1014.63 1014.33
1009.81 1009.81 1009.73 1009.57 1009.30 1008.93 1008.49 1008.03 1007.61 1007.29 1007.13 1007.19 1007.47 1007.99 1008.72 1009.61 1010.62 1011.68 1012.72 1013.69 1014.55 1015.28 1015.88 1016.35 1016.72 1016.99 1017.21 1017.37 1017.50 1017.60 1017.64 1017.64 1017.59 1017.47 1017.29 1017.06 1016.78 1016.48 1016.17 1015.87 1015.58 1015.32 1015.09 1014.86
1009.41 1009.28 1009.13 1008.93 1008.68 1008.37 1008.05 1007.73 1007.47 1007.31 1007.31 1007.48 1007.86 1008.44 1009.19 1010.09 1011.08 1012.10 1013.10 1014.03 1014.86 1015.57 1016.16 1016.62 1016.97 1017.24 1017.45 1017.60 1017.71 1017.77 1017.79 1017.77 1017.69 1017.56 1017.38 1017.16 1016.92 1016.68 1016.44 1016.22 1016.04 1015.87 1015.72 1015.57
1009.00 1008.76 1008.55 1008.33 1008.12 1007.91 1007.72 1007.56 1007.47 1007.49 1007.63 1007.93 1008.39 1009.02 1009.78 1010.66 1011.60 1012.56 1013.49 1014.36 1015.14 1015.81 1016.36 1016.80 1017.15 1017.41 1017.61 1017.74 1017.84 1017.88 1017.89 1017.85 1017.76 1017.64 1017.49 1017.32 1017.14 1016.97 1016.82 1016.69 1016.60 1016.53 1016.45 1016.36
1008.62 1008.31 1008.05 1007.84 1007.68 1007.58 1007.52 1007.52 1007.61 1007.79 1008.08 1008.49 1009.02 1009.68 1010.44 1011.27 1012.15 1013.03 1013.88 1014.68 1015.39 1016.01 1016.53 1016.95 1017.28 1017.53 1017.72 1017.85 1017.93 1017.97 1017.97 1017.94 1017.87 1017.78 1017.67 1017.55 1017.44 1017.34 1017.28 1017.24 1017.22 1017.21 1017.19 1017.13
1008.32 1007.95 1007.67 1007.49 1007.39 1007.39 1007.46 1007.62 1007.86 1008.18 1008.60 1009.10 1009.69 1010.36 1011.10 1011.88 1012.69 1013.49 1014.27 1014.99 1015.64 1016.21 1016.69 1017.09 1017.40 1017.65 1017.84 1017.97 1018.05 1018.10 1018.11 1018.09 1018.05 1018.00 1017.93 1017.87 1017.82 1017.79 1017.79 1017.80 1017.83 1017.86 1017.86 1017.80
Thickness
5750 5738 5731 5737 5742 5741 5739 5732 5728 5734 5748 5741 5732 5730 5737 5744 5744 5742 5741 5741 5740 5741 5745 5746 5745 5745 5744 5742 5740 5737 5733 5731 5729 5725 5722 5719 5717 5718 5717 5717 5716 5715 5714 5713
5736 5730 5743 5749 5747 5743 5738 5728 5728 5736 5747 5740 5730 5729 5736 5741 5741 5741 5739 5738 5738 5738 5740 5740 5740 5740 5739 5738 5737 5735 5733 5730 5728 5724 5723 5720 5717 5716 5715 5714 5713 5712 5711 5711
5729 5738 5750 5744 5737 5734 5733 5729 5728 5727 5736 5741 5729 5721 5729 5735 5741 5740 5740 5740 5740 5737 5735 5736 5735 5735 5736 5734 5734 5733 5731 5729 5726 5724 5721 5718 5715 5713 5711 5709 5709 5709 5709 5708
5736 5745 5744 5738 5734 5734 5725 5739 5736 5731 5721 5718 5725 5703 5721 5730 5730 5733 5734 5735 5736 5736 5735 5733 5733 5732 5731 5732 5732 5732 5729 5727 5725 5723 5718 5713 5709 5705 5707 5707 5706 5707 5706 5705
5733 5740 5736 5731 5736 5737 5732 5741 5736 5731 5723 5716 5724 5712 5717 5730 5723 5726 5731 5733 5734 5735 5733 5731 5730 5730 5730 5730 5729 5728 5727 5724 5723 5720 5716 5712 5709 5707 5707 5706 5704 5703 5703 5702
5738 5747 5744 5740 5743 5743 5740 5736 5733 5731 5721 5703 5720 5714 5711 5724 5727 5728 5730 5732 5733 5733 5732 5731 5730 5729 5728 5726 5724 5724 5722 5720 5719 5716 5714 5710 5707 5704 5702 5700 5698 5698 5698 5698
5725 5735 5744 5745 5733 5735 5732 5715 5700 5698 5697 5704 5731 5720 5717 5733 5739 5735 5731 5731 5733 5732 5730 5727 5725 5723 5722 5721 5720 5719 5717 5715 5715 5712 5710 5709 5706 5703 5700 5698 5696 5694 5693 5693
5712 5714 5734 5738 5730 5723 5725 5717 5694 5685 5693 5709 5725 5715 5721 5738 5740 5738 5734 5731 5729 5727 5726 5724 5722 5719 5718 5717 5716 5714 5712 5711 5711 5709 5708 5707 5705 5702 5699 5697 5695 5693 5691 5691
5710 5714 5736 5739 5739 5731 5719 5718 5723 5706 5704 5700 5713 5717 5722 5732 5730 5729 5728 5725 5723 5722 5722 5720 5718 5716 5714 5712 5711 5710 5709 5707 5707 5706 5705 5703 5702 5699 5697 5695 5694 5692 5690 5689
5718 5707 5723 5732 5733 5732 5728 5724 5715 5703 5689 5686 5705 5710 5708 5714 5718 5721 5720 5719 5719 5719 5717 5716 5713 5711 5710 5709 5707 5707 5705 5704 5704 5703 5701 5700 5698 5696 5694 5692 5689 5688 5686 5685
5716 5704 5709 5718 5713 5714 5717 5714 5712 5707 5705 5688 5683 5697 5726 5721 5722 5719 5718 5718 5716 5714 5712 5710 5708 5707 5706 5705 5703 5701 5700 5699 5698 5697 5697 5695 5694 5692 5690 5687 5686 5684 5682 5680
5714 5704 5699 5711 5726 5728 5721 5716 5710 5692 5693 5700 5690 5695 5729 5726 5725 5721 5717 5716 5714 5711 5708 5706 5703 5702 5700 5698 5696 5695 5694 5694 5693 5692 5691 5690 5689 5687 5684 5682 5681 5680 5677 5675
5706 5696 5686 5691 5701 5712 5710 5713 5713 5707 5699 5693 5685 5692 5722 5720 5718 5717 5714 5711 5709 5706 5703 5700 5697 5695 5693 5692 5690 5689 5689 5688 5687 5686 5684 5683 5682 5680 5678 5677 5676 5674 5672 5670
5702 5693 5687 5679 5690 5699 5699 5704 5708 5700 5687 5687 5693 5697 5705 5707 5708 5708 5708 5706 5703 5700 5697 5694 5690 5688 5687 5686 5684 5683 5682 5682 5681 5679 5677 5676 5675 5673 5672 5671 5670 5668 5667 5665
5696 5685 5692 5697 5702 5702 5699 5700 5702 5699 5697 5689 5696 5699 5702 5704 5705 5704 5703 5700 5697 5694 5692 5689 5685 5683 5681 5679 5678 5677 5676 5675 5674 5672 5670 5669 5669 5667 5665 5664 5663 5662 5661 5660
5689 5682 5684 5686 5696 5697 5694 5698 5699 5699 5700 5697 5696 5697 5708 5708 5705 5700 5697 5694 5690 5688 5686 5684 5681 5678 5675 5673 5672 5671 5669 5669 5668 5665 5664 5663 5662 5660 5658 5657 5655 5654 5654 5653
5680 5676 5670 5671 5686 5684 5679 5694 5696 5696 5699 5696 5688 5694 5703 5698 5696 5692 5691 5688 5685 5683 5681 5678 5676 5673 5671 5669 5667 5664 5663 5662 5660 5658 5657 5656 5655 5653 5651 5650 5648 5647 5646 5645
5674 5670 5667 5665 5668 5655 5683 5704 5702 5695 5696 5699 5696 5697 5697 5693 5691 5690 5688 5683 5679 5678 5675 5673 5670 5668 5666 5665 5663 5660 5657 5654 5652 5650 5650 5649 5648 5646 5645 5643 5641 5641 5640 5638
5676 5665 5657 5655 5652 5664 5682 5694 5694 5686 5684 5694 5691 5690 5689 5688 5683 5678 5681 5679 5675 5672 5670 5667 5665 5663 5660 5658 5656 5653 5649 5647 5644 5642 5642 5642 5641 5640 5638 5636 5634 5634 5633 5631
5671 5666 5652 5648 5642 5645 5669 5686 5692 5683 5668 5685 5684 5680 5678 5675 5660 5661 5671 5671 5667 5665 5663 5660 5658 5656 5653 5651 5648 5645 5641 5638 5636 5636 5635 5635 5635 5634 5632 5630 5629 5627 5626 5624
5650 5649 5644 5641 5639 5652 5670 5677 5676 5654 5656 5674 5675 5672 5668 5662 5660 5661 5663 5661 5658 5656 5654 5652 5649 5646 5644 5643 5640 5636 5633 5631 5630 5630 5629 5628 5628 5627 5626 5624 5622 5620 5619 5616
5647 5643 5643 5642 5635 5642 5664 5665 5657 5654 5664 5667 5665 5663 5659 5656 5656 5655 5652 5649 5647 5645 5643 5642 5639 5637 5636 5634 5631 5627 5625 5625 5624 5622 5621 5620 5620 5620 5618 5615 5613 5612 5611 5608
5650 5650 5648 5647 5645 5655 5660 5658 5659 5660 5656 5656 5655 5654 5651 5647 5644 5643 5641 5639 5637 5635 5634 5632 5629 5627 5626 5626 5623 5619 5618 5618 5617 5615 5613 5612 5612 5611 5609 5607 5604 5603 5602 5599
5649 5654 5647 5644 5648 5652 5653 5654 5652 5652 5649 5649 5648 5645 5642 5638 5636 5633 5631 5630 5627 5626 5624 5623 5621 5618 5617 5616 5615 5613 5612 5611 5609 5607 5605 5604 5603 5601 5600 5598 5596 5594 5592 5591
5635 5637 5635 5635 5639 5641 5642 5643 5642 5642 5641 5640 5638 5636 5633 5630 5627 5625 5623 5621 5619 5617 5615 5614 5611 5609 5608 5608 5607 5606 5604 5602 5601 5599 5598 5596 5594 5592 5590 5588 5587 5586 5584 5583
5631 5628 5623 5622 5630 5629 5629 5633 5634 5631 5629 5629 5627 5626 5624 5622 5619 5617 5615 5613 5611 5609 5607 5605 5603 5602 5601 5600 5599 5597 5596 5595 5592 5590 5588 5586 5585 5583 5582 5580 5578 5577 5575 5574